Casper, WY (82601)

2:37 AM MST on December 27, 2014 (GMT -0700)
Casper Mountain Foothills | Change Station
CLOSE
Current Station
Personal Weather Station
Location: Casper, WY
Elevation: 5334 ft
Nearby Weather Stations
Active Advisory: Special Statement Active Notice: Record Report

Elev 5334 ft 42.83 °N, 106.31 °W | Updated 60 seconds ago

Overcast
Overcast
16.4 °F
Feels Like 16 °F
N
3.0
Wind Variable Wind from WSW
Gusts 11.0 mph

Today
High -- | Low -- °F
--% Chance of Precip.
Yesterday
High -- | Low -- °F
Precip. -- in
7:35 AM 4:37 PM
Waxing Crescent, 34% visible
Pressure 30.32 in
Visibility 10.0 miles
Clouds Overcast 8000 ft
Windchill 16 °F
Dew Point 8 °F
Humidity 69%
Rainfall 0.00 in
Snow Depth Not available.
UV 0 out of 12
Pollen .10 out of 12
Air Quality Not available.
Flu Activity Not available.
METAR KCPR 270853Z AUTO 25008KT 10SM OVC080 M14/M16 A3009 RMK AO2 SLP265 T11391156 53001

More Conditions Fewer Conditions

Pressure 30.32 in
Visibility 10.0 miles
Clouds Overcast 8000 ft
Windchill 16 °F
Dew Point 8 °F
Humidity 69%
Rainfall 0.00 in
Snow Depth Not available.
UV 0 out of 12
Pollen .10 out of 12
Air Quality Not available.
Flu Activity Not available.
METAR KCPR 270853Z AUTO 25008KT 10SM OVC080 M14/M16 A3009 RMK AO2 SLP265 T11391156 53001

More Conditions Fewer Conditions

10-Day Weather Forecast

Almanac

Astronomy

Dec. 27, 2014 Rise Set
Actual Time
Civil Twilight
Nautical Twilight
Astronomical Twilight
Moon
Length of Visible Light
Length of Day
Tomorrow will be .
, % of the Moon is Illuminated

Today's Extremes

State Highs State Lows

Community

WunderPhotos

Upload Photos

1,780,869 photos uploaded!

WunderBlogs® & News

Nearby

Air Quality

  Air Quality AQ Index Pollutant
Not available.

Snow Depth

Station Depth Elevation

Earthquake Activity

City Distance Mag. Time & Date
Minimum magnitude displayed is 2.5.

Coastal Water Temperatures

Place Temperature

Nearby Weather Stations